Hill AFB, UT

10:45 AM MST on February 27, 2017 (GMT -0700)
Hill Air Force Base

Weather History for KHIF - April, 2013

Change the Weather History Date:

Monday, April 1, 2013

  Actual Average Record
Temperature  
Mean Temperature 50 °F -  
Max Temperature 58 °F 51 °F 69 °F (2002)
Min Temperature 42 °F 34 °F 18 °F (2008)
Degree Days  
Heating Degree Days 16    
Moisture  
Dew Point 38 °F    
Average Humidity 68    
Maximum Humidity 100    
Minimum Humidity 36    
Precipitation  
Precipitation 0.32 in - - ()
Sea Level Pressure  
Sea Level Pressure 29.91 in    
Wind  
Wind Speed 10 mph (SE)    
Max Wind Speed 29 mph    
Max Gust Speed 37 mph    
Visibility 9 miles    
Events Rain , Thunderstorm    
Averages and records for this station are not official NWS values.
T = Trace of Precipitation, MM = Missing Value Source: NWS Daily Summary

Daily Weather History Graph

Daily Weather History Graph

Search for Another Location

Airport or City:

Trip Planner

Search our weather history database for the weather conditions in past years. The results will help you decide how hot, cold, wet, or windy it might be!

Date:

Astronomy

Apr. 01, 2013 Rise Set
Actual Time 7:10 AM MDT 7:53 PM MDT
Civil Twilight 6:42 AM MDT 8:21 PM MDT
Nautical Twilight 6:09 AM MDT 8:54 PM MDT
Astronomical Twilight 5:36 AM MDT 9:28 PM MDT
Moon 1:07 AM MDT (4/1) 10:58 AM MDT (4/1)
Length of Visible Light 13h 38m
Length of Day
12h 42m
Waning Gibbous, 66% of the Moon is Illuminated
Apr 1
Waning Gibbous
Apr 2
Last Quarter
Apr 10
New
Apr 18
First Quarter
Apr 25
Full

Hourly Weather History & Observations

Time (MDT) Temp. Windchill Dew Point Humidity Pressure Visibility Wind Dir Wind Speed Gust Speed Precip Events Conditions
12:08 AM 53.6 °F - 39.2 °F 58% 29.98 in 10.0 mi South 9.2 mph - N/A   Mostly Cloudy
12:53 AM 53.6 °F - 35.6 °F 51% 29.96 in 10.0 mi East 6.9 mph - N/A   Mostly Cloudy
12:58 AM 54.7 °F - 34.7 °F 47% 29.85 in 10.0 mi ESE 6.9 mph - N/A   Mostly Cloudy
1:58 AM 54.3 °F - 28.2 °F 37% 29.81 in 10.0 mi East 11.5 mph - N/A   Mostly Cloudy
2:18 AM 55.4 °F - 28.4 °F 36% 29.94 in 10.0 mi ESE 11.5 mph - N/A   Mostly Cloudy
2:53 AM 55.4 °F - 28.4 °F 36% 29.93 in 10.0 mi East 8.1 mph - N/A   Scattered Clouds
2:58 AM 54.5 °F - 28.0 °F 36% 29.80 in 10.0 mi East 10.4 mph - N/A   Scattered Clouds
3:18 AM 55.4 °F - 28.4 °F 36% 29.93 in 10.0 mi ESE 8.1 mph - N/A   Mostly Cloudy
3:58 AM 53.8 °F - 31.1 °F 42% 29.83 in 10.0 mi Variable 2.3 mph - N/A   Overcast
4:58 AM 53.1 °F - 35.6 °F 52% 29.82 in 10.0 mi SSE 11.5 mph - N/A   Mostly Cloudy
5:38 AM 51.8 °F - 32.0 °F 47% 29.94 in 10.0 mi ESE 10.4 mph - N/A   Overcast
5:58 AM 50.7 °F - 30.4 °F 46% 29.83 in 10.0 mi ESE 9.2 mph - N/A   Mostly Cloudy
6:58 AM 52.0 °F - 31.3 °F 45% 29.82 in 10.0 mi ESE 10.4 mph - N/A   Mostly Cloudy
7:12 AM 51.8 °F - 32.0 °F 47% 29.95 in 10.0 mi SSE 17.3 mph - N/A   Scattered Clouds
7:17 AM 51.8 °F - 33.8 °F 50% 29.94 in 10.0 mi South 21.9 mph 23.0 mph N/A   Mostly Cloudy
7:58 AM 50.7 °F - 37.0 °F 59% 29.86 in 10.0 mi South 18.4 mph - N/A   Mostly Cloudy
8:32 AM 50.0 °F - 37.4 °F 62% 29.95 in 10.0 mi South 16.1 mph - N/A Rain Light Rain
8:58 AM 49.8 °F - 39.4 °F 67% 29.86 in 10.0 mi South 13.8 mph - 0.00 in   Light Drizzle
9:00 AM 50.0 °F - 39.2 °F 66% 29.95 in 10.0 mi SSE 12.7 mph - N/A   Light Drizzle
9:47 AM 51.8 °F - 35.6 °F 54% 29.93 in 10.0 mi Variable 4.6 mph 17.3 mph N/A Rain Light Rain
9:58 AM 51.3 °F - 36.3 °F 57% 29.84 in 10.0 mi Variable 5.8 mph 19.6 mph 0.00 in   Mostly Cloudy
10:58 AM 53.6 °F - 35.2 °F 50% 29.83 in 10.0 mi ENE 5.8 mph - N/A   Mostly Cloudy
11:58 AM 55.8 °F - 36.0 °F 47% 29.83 in 10.0 mi East 9.2 mph - N/A   Mostly Cloudy
12:54 PM 57.2 °F - 35.6 °F 44% 29.93 in 10.0 mi Variable 5.8 mph - N/A Thunderstorm Thunderstorm
12:58 PM 56.3 °F - 35.2 °F 45% 29.83 in 10.0 mi SSE 6.9 mph - N/A Thunderstorm Thunderstorm
1:04 PM 55.4 °F - 35.6 °F 47% 29.93 in 10.0 mi South 28.8 mph 36.8 mph N/A Rain , Thunderstorm Light Thunderstorms and Rain
1:06 PM 55.4 °F - 37.4 °F 51% 29.94 in 4.0 mi SSE 26.5 mph 36.8 mph N/A Rain , Thunderstorm Light Thunderstorms and Rain
1:21 PM 48.2 °F - 41.0 °F 76% 29.95 in 2.5 mi South 23.0 mph 33.4 mph N/A Rain , Thunderstorm Thunderstorms and Rain
1:31 PM 46.4 °F 40.1 °F 41.0 °F 81% 29.95 in 3.0 mi SSE 15.0 mph 29.9 mph N/A Rain , Thunderstorm Light Thunderstorms and Rain
1:45 PM 46.4 °F 40.7 °F 42.8 °F 87% 29.95 in 5.0 mi South 12.7 mph - N/A Rain , Thunderstorm Light Thunderstorms and Rain
1:49 PM 46.4 °F 39.5 °F 42.8 °F 87% 29.96 in 5.0 mi SW 17.3 mph - N/A Rain , Thunderstorm Light Thunderstorms and Rain
1:58 PM 46.4 °F 41.5 °F 42.8 °F 87% 29.88 in 6.0 mi WSW 10.4 mph - 0.22 in Rain , Thunderstorm Light Rain
2:54 PM 44.6 °F 42.2 °F 44.6 °F 100% 29.96 in 10.0 mi NE 4.6 mph - N/A   Overcast
2:58 PM 45.1 °F 42.8 °F 43.7 °F 95% 29.89 in 10.0 mi NNE 4.6 mph - 0.05 in   Overcast
3:08 PM 44.6 °F 42.2 °F 42.8 °F 93% 29.96 in 10.0 mi NE 4.6 mph - N/A Rain Light Rain
3:52 PM 46.4 °F 43.5 °F 44.6 °F 93% 29.95 in 10.0 mi NNE 5.8 mph - N/A   Mostly Cloudy
3:58 PM 45.9 °F 43.6 °F 44.8 °F 96% 29.88 in 10.0 mi NNE 4.6 mph - 0.01 in   Overcast
4:25 PM 46.4 °F 43.5 °F 41.0 °F 81% 29.94 in 10.0 mi East 5.8 mph - N/A   Mostly Cloudy
4:58 PM 47.7 °F - 41.2 °F 78% 29.85 in 10.0 mi East 10.4 mph - 0.00 in   Mostly Cloudy
5:58 PM 48.7 °F - 39.9 °F 72% 29.86 in 10.0 mi East 4.6 mph - N/A   Mostly Cloudy
6:58 PM 49.8 °F - 41.0 °F 72% 29.86 in 10.0 mi NW 3.5 mph - 0.01 in   Mostly Cloudy
7:38 PM 46.4 °F 40.4 °F 42.8 °F 87% 29.96 in 10.0 mi WSW 13.8 mph - N/A   Mostly Cloudy
7:43 PM 46.4 °F 40.7 °F 42.8 °F 87% 29.96 in 10.0 mi SW 12.7 mph - N/A   Mostly Cloudy
7:58 PM 45.1 °F 40.8 °F 41.9 °F 88% 29.91 in 10.0 mi SSW 8.1 mph - N/A   Overcast
8:04 PM 44.6 °F 40.2 °F 41.0 °F 87% 29.98 in 10.0 mi South 8.1 mph - N/A Rain Light Rain
8:58 PM 43.5 °F 40.1 °F 41.4 °F 92% 29.94 in 9.0 mi SSW 5.8 mph - 0.02 in Rain Light Rain
9:11 PM 42.8 °F 38.6 °F 42.8 °F 100% 29.99 in 8.0 mi South 6.9 mph - N/A Rain Light Rain
9:19 PM 42.8 °F 40.1 °F 42.8 °F 100% 29.99 in 10.0 mi South 4.6 mph - N/A   Overcast
9:58 PM 43.2 °F 40.5 °F 42.6 °F 98% 29.93 in 10.0 mi East 4.6 mph - 0.01 in   Overcast
10:54 PM 42.8 °F - 41.0 °F 93% 29.99 in 10.0 mi ENE 2.3 mph - N/A Rain Light Rain
10:58 PM 43.5 °F - 41.4 °F 92% 29.93 in 10.0 mi NE 1.2 mph - 0.00 in Rain Light Rain
11:24 PM 44.6 °F - 41.0 °F 87% 29.98 in 10.0 mi North 2.3 mph - N/A   Overcast
11:58 PM 44.1 °F - 41.5 °F 91% 29.91 in 10.0 mi Calm Calm - 0.00 in Rain Light Rain